This is the latest recevied weather packets stored in our database for station/object NC4J. If no packets are shown the sender has not sent any weather packets the latest 10 day(s).
| Time | Temp. | Humidity | Pressure | Rain* | Wind** | Luminosity | Snow |
|---|---|---|---|---|---|---|---|
| 1777868403 | 5.56° C | 86% | 1018.2 hPa | 0 mm | - | 0 W/m² | - |
| 1777868099 | 5.56° C | 85% | 1018.3 hPa | 0 mm | - | 0 W/m² | - |
| 1777867795 | 5.56° C | 84% | 1018.1 hPa | 0 mm | - | 0 W/m² | - |
| 1777867493 | 6.11° C | 85% | 1018.2 hPa | 0 mm | - | 0 W/m² | - |
| 1777867188 | 6.11° C | 84% | 1017.9 hPa | 0 mm | - | 0 W/m² | - |
| 1777866886 | 6.67° C | 84% | 1017.8 hPa | 0 mm | - | 0 W/m² | - |
| 1777866583 | 6.67° C | 82% | 1017.8 hPa | 0 mm | - | 0 W/m² | - |
| 1777866280 | 6.67° C | 80% | 1018.1 hPa | 0 mm | - | 0 W/m² | - |
| 1777865977 | 7.22° C | 80% | 1018.2 hPa | 0 mm | - | 0 W/m² | - |
| 1777865675 | 7.22° C | 78% | 1018.1 hPa | 0 mm | - | 0 W/m² | - |
| 1777865372 | 7.22° C | 78% | 1018.2 hPa | 0 mm | - | 0 W/m² | - |
| 1777865069 | 7.22° C | 77% | 1018.1 hPa | 0 mm | - | 0 W/m² | - |
| 1777864765 | 7.22° C | 80% | 1018.1 hPa | 0 mm | - | 0 W/m² | - |
| 1777864462 | 7.22° C | 79% | 1018.2 hPa | 0 mm | - | 0 W/m² | - |
| 1777864159 | 7.22° C | 76% | 1018.3 hPa | 0 mm | - | 0 W/m² | - |
| 1777863856 | 7.22° C | 79% | 1018.2 hPa | 0 mm | - | 0 W/m² | - |
| 1777863552 | 7.78° C | 78% | 1018.3 hPa | 0 mm | - | 0 W/m² | - |
| 1777863249 | 7.78° C | 76% | 1018.3 hPa | 0 mm | - | 0 W/m² | - |
| 1777862946 | 7.78° C | 77% | 1018.3 hPa | 0 mm | - | 0 W/m² | - |
| 1777862643 | 7.78° C | 75% | 1018.4 hPa | 0 mm | - | 0 W/m² | - |
| 1777862340 | 8.33° C | 73% | 1018.3 hPa | 0 mm | - | 0 W/m² | - |
| 1777862036 | 8.33° C | 75% | 1018.4 hPa | 0 mm | - | 0 W/m² | - |
| 1777861731 | 8.33° C | 74% | 1018.4 hPa | 0 mm | - | 0 W/m² | - |
| 1777861429 | 8.89° C | 72% | 1018.1 hPa | 0 mm | - | 0 W/m² | - |
| 1777861125 | 8.89° C | 70% | 1018.3 hPa | 0 mm | - | 0 W/m² | - |
* Rain latest hour (hover to see other rain measurements)
** Current wind speed in m/s (hover to see current wind gust speed)